[[{"header":{"parameterUnit":"m.s-1","parameterCategory":1,"la1":30.2991,"la2":30.254,"lo1":-89.0895,"lo2":-89.0444,"dy":0.0017,"dx":0.0017,"nx":28,"ny":28,"refTime":"2024-06-01T09:00:00:Z","depth":0,"parameterNumber":2,"parameterNumberName":"U-component_of_WINDS"},"data":[0,0,0,0,0,0,0,0,0,0,0,0,0,0,0,0,0,0,0,0,0,0,0,0,0,0,0,0,0,0,0,0,0,0,0,0,0,0,0,0,0,0,0,0,0,0,0,0,0,0,0,0,0,0,0,0,0,0,-0.8911,-0.8912,0,-0.9019,-0.902,-0.9021,-0.9059,-0.9058,-0.9058,-0.9058,-0.917,-0.9173,-0.9176,0,0,0,0,0,0,0,0,0,0,0,0,0,-0.8741,-0.8744,-0.8911,-0.8913,-0.8914,-0.9018,-0.902,-0.9021,-0.9059,-0.9058,-0.9058,-0.9058,-0.9169,-0.9173,-0.9177,0,0,0,0,0,0,0,0,0,0,0,0,0,-0.8829,-0.8745,-0.8911,-0.8945,-0.8949,-0.9018,-0.902,-0.9022,-0.9059,-0.9058,-0.9058,-0.9057,-0.9167,-0.9172,-0.9177,-0.922,0,0,-0.9193,-0.9195,0,0,0,0,0,0,0,0,-0.8824,-0.8835,-0.8939,-0.8943,-0.8948,-0.9025,-0.9001,-0.9088,-0.9059,-0.9017,-0.9058,-0.9057,-0.9122,-0.9131,-0.9152,-0.9226,-0.9231,-0.9193,-0.9196,-0.9198,-0.92,0,0,0,0,0,0,0,-0.8818,-0.883,-0.8954,-0.894,-0.8946,-0.8956,-0.8968,-0.9018,-0.9072,-0.9021,-0.9024,-0.9036,-0.9124,-0.9147,-0.9155,-0.9232,-0.9193,-0.9197,-0.9201,-0.9203,-0.9348,-0.9349,0,0,0,0,0,0,-0.8805,-0.8825,-0.895,-0.8957,-0.8883,-0.896,-0.8973,-0.9001,-0.9072,-0.9082,-0.9037,-0.9037,-0.9139,-0.9149,-0.9159,-0.9216,-0.9198,-0.9203,-0.9206,-0.9348,-0.9349,-0.935,0,0,0,0,0,0,-0.8802,-0.8816,-0.8946,-0.8892,-0.8909,-0.8963,-0.8994,-0.9003,-0.9026,-0.9083,-0.9093,-0.905,-0.9139,-0.9152,-0.9205,-0.922,-0.9205,-0.921,-0.9347,-0.9348,-0.9349,-0.9329,0,0,0,0,0,0,-0.8797,-0.8815,-0.8831,-0.8892,-0.8912,-0.8989,-0.8995,-0.9006,-0.9034,-0.9037,-0.9098,-0.9108,-0.914,-0.9198,-0.921,-0.9227,-0.9214,-0.9345,-0.9347,-0.9349,-0.9328,-0.9329,-0.933,0,0,0,0,0,-0.879,-0.8821,-0.8832,-0.8846,-0.8933,-0.899,-0.9001,-0.9036,-0.9035,-0.9053,-0.909,-0.9106,-0.9216,-0.9203,-0.9217,-0.9236,-0.9345,-0.9347,-0.9349,-0.9328,-0.9329,-0.933,0,0,0,0,0,0,-0.8761,-0.883,-0.8842,-0.8893,-0.8935,-0.8996,-0.9019,-0.9036,-0.908,-0.9081,-0.9123,-0.9136,-0.9187,-0.9216,-0.92,-0.9282,-0.9282,-0.9287,-0.9261,-0.9263,-0.9263,-0.9255,-0.9218,0,0,0,0,0,-0.876,-0.8799,-0.8858,-0.8897,-0.8918,-0.8965,-0.8991,-0.9014,-0.906,-0.9078,-0.9119,-0.9163,-0.9208,-0.9237,-0.9281,-0.9333,-0.9348,-0.9353,-0.9353,-0.9354,-0.9358,-0.9389,-0.9393,-0.9356,-0.9356,-0.9356,0,0,-0.8759,-0.8802,-0.8824,-0.8893,-0.8928,-0.8969,-0.898,-0.9022,-0.9053,-0.9085,-0.9137,-0.9169,-0.9221,-0.9274,-0.9299,-0.9301,-0.9371,-0.9356,-0.9356,-0.936,-0.9391,-0.9395,-0.9398,-0.9357,-0.9357,-0.9357,0,0,-0.8779,-0.8814,-0.8852,-0.8887,-0.8941,-0.8972,-0.8981,-0.9039,-0.9061,-0.9115,-0.914,-0.9178,-0.9254,-0.9291,-0.9319,-0.9354,-0.9371,-0.9367,-0.9372,-0.9401,-0.9404,-0.9407,-0.9421,-0.9425,-0.9371,-0.9371,-0.9371,0,-0.8772,-0.8833,-0.8869,-0.8911,-0.8941,-0.8971,-0.901,-0.9042,-0.9108,-0.9128,-0.9128,-0.9225,-0.9263,-0.9325,-0.9334,-0.9356,-0.9368,-0.9361,-0.9401,-0.9404,-0.9407,-0.9421,-0.9426,-0.937,-0.937,-0.937,-0.937,0,-0.8822,-0.8865,-0.8889,-0.8951,-0.8984,-0.9024,-0.9067,-0.9095,-0.9116,-0.9147,-0.9202,-0.9248,-0.9303,-0.932,-0.934,-0.9386,-0.9385,-0.9392,-0.9393,-0.9409,-0.9423,-0.9428,-0.9369,-0.9369,-0.9369,-0.937,0,0,-0.8827,-0.8908,-0.8917,-0.8946,-0.9007,-0.9041,-0.9083,-0.9136,-0.9161,-0.9205,-0.9243,-0.9307,-0.9314,-0.9347,-0.9372,-0.9398,-0.9424,-0.9403,-0.9405,-0.9406,-0.9479,-0.9474,-0.9479,-0.9436,-0.9437,-0.9438,-0.9475,0,-0.8855,-0.8931,-0.8965,-0.9025,-0.9066,-0.9095,-0.9132,-0.9175,-0.9205,-0.9245,-0.9279,-0.9325,-0.933,-0.9351,-0.9377,-0.9415,-0.944,-0.9413,-0.9472,-0.9474,-0.9459,-0.9486,-0.9481,-0.9514,-0.9481,-0.9482,-0.9482,0,-0.8899,-0.8943,-0.9008,-0.9065,-0.9084,-0.9116,-0.9168,-0.9205,-0.9255,-0.9275,-0.9312,-0.9336,-0.9383,-0.9379,-0.9445,-0.9426,-0.9452,-0.9475,-0.9477,-0.9485,-0.948,-0.9496,-0.9525,-0.9531,-0.9491,-0.949,-0.9489,0,-0.8897,-0.8973,-0.9022,-0.9045,-0.9113,-0.9136,-0.9165,-0.9214,-0.9244,-0.929,-0.931,-0.9361,-0.9389,-0.9428,-0.9466,-0.946,-0.9529,-0.9528,-0.9549,-0.9548,-0.9563,-0.9562,-0.9598,-0.9578,-0.9578,-0.9578,-0.9577,0,-0.8926,-0.8965,-0.9022,-0.9052,-0.9097,-0.9136,-0.9179,-0.9211,-0.9254,-0.9292,-0.932,-0.9356,-0.9403,-0.9445,-0.9474,-0.9525,-0.9538,-0.9557,-0.9565,-0.9555,-0.9553,-0.9574,-0.9573,-0.9579,-0.9579,-0.9578,-0.9578,0,-0.8932,-0.8971,-0.9027,-0.9087,-0.9103,-0.9133,-0.9186,-0.9217,-0.9249,-0.9296,-0.931,-0.9361,-0.9411,-0.9453,-0.9519,-0.9539,-0.9593,-0.9601,-0.9576,-0.958,-0.9599,-0.9597,-0.9651,-0.9661,-0.9633,-0.9633,-0.9633,0,-0.8949,-0.8979,-0.9043,-0.907,-0.9099,-0.9142,-0.9173,-0.9213,-0.9244,-0.9303,-0.9327,-0.938,-0.9424,-0.9504,-0.9547,-0.9599,-0.9609,-0.9624,-0.9617,-0.9607,-0.9611,-0.961,-0.9614,-0.9625,-0.9626,-0.9626,-0.9626,0,-0.8974,-0.8993,-0.9036,-0.9086,-0.9122,-0.9164,-0.9206,-0.9227,-0.9275,-0.9309,-0.9361,-0.9395,-0.9463,-0.9515,-0.9571,-0.9603,-0.9623,-0.9627,-0.9635,-0.9627,-0.9611,-0.9621,-0.9579,-0.9626,-0.9626,-0.9626,-0.9626,-0.9626,-0.8987,-0.9016,-0.9066,-0.9113,-0.9149,-0.9188,-0.9221,-0.9257,-0.9301,-0.9359,-0.938,-0.9433,-0.9483,-0.956,-0.9593,-0.9636,-0.9638,-0.9649,-0.9652,-0.9655,-0.9654,-0.9603,-0.9646,-0.9646,-0.9646,-0.9646,-0.9647,0,-0.9016,-0.9049,-0.9092,-0.9151,-0.9188,-0.9203,-0.9251,-0.9282,-0.9328,-0.9373,-0.9416,-0.9476,-0.9527,-0.9575,-0.9629,-0.9654,-0.9665,-0.9667,-0.9667,-0.9674,-0.9648,-0.9637,-0.9658,-0.9658,-0.9658,-0.9658,-0.9658,-0.9658,-0.9035,-0.9085,-0.9109,-0.9178,-0.9212,-0.9264,-0.929,-0.9327,-0.9363,-0.9429,-0.9471,-0.9502,-0.9548,-0.9606,-0.9654,-0.9667,-0.9686,-0.9687,-0.9702,-0.9677,-0.9676,-0.9674,-0.9664,-0.969,-0.969,-0.9725,-0.9725,-0.9725]},{"header":{"parameterUnit":"m.s-1","parameterCategory":1,"la1":30.2991,"la2":30.254,"lo1":-89.0895,"lo2":-89.0444,"dy":0.0017,"dx":0.0017,"nx":28,"ny":28,"refTime":"2024-06-01T09:00:00:Z","depth":0,"parameterNumber":3,"parameterNumberName":"V-component_of_WINDS"},"data":[0,0,0,0,0,0,0,0,0,0,0,0,0,0,0,0,0,0,0,0,0,0,0,0,0,0,0,0,0,0,0,0,0,0,0,0,0,0,0,0,0,0,0,0,0,0,0,0,0,0,0,0,0,0,0,0,0,0,2.3519,2.3519,0,2.346,2.346,2.3459,2.3427,2.3427,2.3427,2.3427,2.3361,2.336,2.3358,0,0,0,0,0,0,0,0,0,0,0,0,0,2.3601,2.3599,2.3519,2.3519,2.3518,2.346,2.3459,2.3459,2.3427,2.3427,2.3427,2.3427,2.3362,2.336,2.3358,0,0,0,0,0,0,0,0,0,0,0,0,0,2.3556,2.3599,2.352,2.3495,2.3493,2.346,2.3459,2.3458,2.3427,2.3427,2.3427,2.3427,2.3363,2.336,2.3358,2.3344,0,0,2.335,2.3349,0,0,0,0,0,0,0,0,2.3558,2.3553,2.35,2.3497,2.3494,2.3451,2.3464,2.342,2.3427,2.3452,2.3427,2.3427,2.3391,2.3386,2.3375,2.334,2.3338,2.335,2.3348,2.3347,2.3346,0,0,0,0,0,0,0,2.3562,2.3555,2.3496,2.3499,2.3495,2.3486,2.348,2.3456,2.3422,2.345,2.3447,2.3441,2.3389,2.3378,2.3373,2.3337,2.335,2.3347,2.3346,2.3345,2.3287,2.3287,0,0,0,0,0,0,2.3569,2.3558,2.3498,2.3494,2.3527,2.3485,2.3477,2.3465,2.3423,2.3416,2.3441,2.344,2.3382,2.3376,2.3371,2.3352,2.3347,2.3345,2.3343,2.3287,2.3287,2.3287,0,0,0,0,0,0,2.3571,2.3564,2.35,2.3525,2.3517,2.3483,2.3469,2.3464,2.3452,2.3416,2.341,2.3435,2.3382,2.3374,2.3351,2.3349,2.3344,2.3341,2.3287,2.3287,2.3287,2.3313,0,0,0,0,0,0,2.3574,2.3565,2.356,2.3526,2.3515,2.3483,2.3469,2.3463,2.3448,2.3446,2.3409,2.3403,2.3381,2.3355,2.3348,2.3345,2.3339,2.3287,2.3287,2.3287,2.3312,2.3314,2.3316,0,0,0,0,0,2.3577,2.3569,2.356,2.3553,2.3509,2.3483,2.3477,2.3453,2.3448,2.3443,2.342,2.3404,2.335,2.3353,2.3345,2.3341,2.3287,2.3287,2.3287,2.3312,2.3314,2.3316,0,0,0,0,0,0,2.3603,2.3564,2.3554,2.3535,2.3513,2.3477,2.347,2.3456,2.3433,2.3432,2.3402,2.3394,2.3373,2.3354,2.3358,2.3325,2.3317,2.3315,2.3338,2.334,2.3341,2.3346,2.3337,0,0,0,0,0,2.3607,2.359,2.3556,2.3543,2.3532,2.3503,2.3491,2.3474,2.3449,2.3439,2.3414,2.3389,2.3366,2.3352,2.3329,2.3309,2.3301,2.3303,2.3305,2.3306,2.3305,2.3293,2.3294,2.3287,2.3287,2.3287,0,0,2.3614,2.3591,2.3582,2.3548,2.3528,2.351,2.3495,2.3477,2.3463,2.3436,2.3413,2.3393,2.3363,2.3342,2.3331,2.3326,2.3305,2.3306,2.3308,2.3306,2.3293,2.3294,2.3295,2.3287,2.3287,2.3287,0,0,2.3618,2.3599,2.3586,2.3567,2.3539,2.352,2.3516,2.3483,2.347,2.3447,2.3426,2.3408,2.337,2.3349,2.3334,2.3331,2.3315,2.3324,2.3332,2.3321,2.3321,2.3322,2.3321,2.3321,2.3323,2.3323,2.3323,0,2.363,2.3604,2.3581,2.3564,2.3549,2.3526,2.3511,2.3494,2.3459,2.3448,2.3443,2.3395,2.3373,2.3347,2.3346,2.3334,2.3329,2.3328,2.3324,2.3324,2.3324,2.3322,2.3322,2.3324,2.3324,2.3324,2.3324,0,2.3621,2.3603,2.3595,2.3564,2.3548,2.3533,2.3506,2.3492,2.3477,2.3458,2.3434,2.3407,2.3379,2.3371,2.3355,2.3342,2.334,2.333,2.3321,2.3326,2.3324,2.3323,2.3326,2.3326,2.3325,2.3325,0,0,2.364,2.3596,2.3594,2.358,2.3546,2.3531,2.3514,2.3488,2.3477,2.3453,2.3438,2.3406,2.3397,2.3379,2.3361,2.3351,2.3351,2.3342,2.3341,2.3345,2.3334,2.3342,2.3342,2.334,2.334,2.334,2.3336,0,2.364,2.361,2.3588,2.3566,2.3549,2.3526,2.3511,2.3489,2.347,2.3452,2.343,2.3409,2.3398,2.3387,2.3376,2.3353,2.3348,2.3353,2.3324,2.3324,2.3333,2.3341,2.3349,2.3347,2.3336,2.3335,2.3335,0,2.3635,2.3615,2.3592,2.3561,2.3552,2.354,2.3514,2.3497,2.347,2.3457,2.3438,2.342,2.3399,2.3393,2.3364,2.3368,2.3354,2.3341,2.334,2.3337,2.333,2.3338,2.3346,2.3346,2.3334,2.3334,2.3334,0,2.3652,2.3618,2.36,2.3588,2.3551,2.3543,2.3527,2.35,2.3486,2.3463,2.3453,2.3427,2.3413,2.3392,2.3367,2.3364,2.3341,2.3332,2.3329,2.3329,2.3325,2.3325,2.3332,2.3316,2.3316,2.3316,2.3316,0,2.3654,2.3641,2.3607,2.3596,2.358,2.3555,2.3539,2.3521,2.3497,2.3481,2.3459,2.3444,2.3412,2.3392,2.3372,2.3351,2.3345,2.3333,2.3328,2.3335,2.3337,2.3326,2.3326,2.3316,2.3316,2.3316,2.3316,0,2.3671,2.3647,2.3626,2.3593,2.3585,2.3575,2.3546,2.3534,2.3514,2.3494,2.3488,2.3456,2.3432,2.3405,2.3372,2.3358,2.3339,2.3331,2.3349,2.3346,2.3344,2.3345,2.3344,2.3343,2.3328,2.3329,2.3329,0,2.3674,2.3663,2.363,2.3619,2.3604,2.3585,2.3571,2.3545,2.3531,2.35,2.3491,2.3466,2.3444,2.3407,2.338,2.3354,2.3346,2.3348,2.3342,2.335,2.3346,2.3347,2.3346,2.3349,2.3349,2.335,2.335,0,2.3682,2.3671,2.3652,2.3629,2.3613,2.3593,2.3572,2.3564,2.3533,2.3518,2.3494,2.3478,2.3445,2.342,2.3391,2.3372,2.3356,2.3352,2.335,2.3358,2.3368,2.3363,2.3353,2.3352,2.3352,2.3352,2.3352,2.3352,2.3692,2.3682,2.3657,2.3636,2.3618,2.3599,2.3586,2.3566,2.3546,2.3518,2.3504,2.348,2.3453,2.3413,2.3395,2.3375,2.337,2.3367,2.3366,2.3366,2.3368,2.3371,2.337,2.337,2.3369,2.3369,2.3369,0,2.3699,2.3682,2.3664,2.3636,2.362,2.3607,2.3583,2.357,2.355,2.3527,2.3507,2.348,2.3455,2.3427,2.3401,2.339,2.3382,2.3384,2.3385,2.3381,2.3374,2.3379,2.3391,2.3391,2.3391,2.3391,2.3391,2.3391,2.3701,2.3684,2.367,2.3642,2.3625,2.3603,2.3591,2.3572,2.3554,2.3525,2.3506,2.3488,2.3462,2.3434,2.3411,2.3403,2.3394,2.3399,2.3389,2.3383,2.3381,2.3379,2.3384,2.3397,2.3397,2.3397,2.3397,2.3397]}]]